Location: San Gennaro Vesuviano
(40.8833°N, 14.5333°E)
Time: 22:50:10
(UTC+00:00)

Cosmos 1140 Rocket - Pass Details

Date: 22 April 2021
Orbit: 745 x 767 km, 74.1° (Epoch: 10 May)

Event Time Altitude Azimuth Distance (km) Brightness Sun altitude
Rises 18:30:40 0° 168° (SSE) 3,173 6.3 -8.2°
Reaches altitude 10° 18:33:17 10° 157° (SSE) 2,253 5.5 -8.6°
Maximum altitude 18:37:35 28° 100° (E) 1,374 4.3 -9.4°
Drops below altitude 10° 18:41:54 10° 42° (NE) 2,265 5.8 -10.1°
Sets 18:44:32 0° 31° (NNE) 3,195 6.7 -10.5°
